ECHOSTAR 23

Last updated on Tue Oct 08 2024 00:02:40 GMT+0000 (Coordinated Universal Time)

1 42070U 17014A 24281.19979882 -.00000046 00000+0 00000+0 0 9995 2 42070 0.0178 195.1792 0002058 355.2904 147.9229 1.00272199 27721
UTC large
Height (km)
Speed (km/s)
/
Latitude / Longitude
Inclination (degrees)
Orbital Period (minutes)
Azimuth
Elevation
Range (km)
Doppler Factor

Next 0 passes for location: London (51.5072 / 0.1276)

Sorry there are no passes over London.